Location: Helensbirgh
(56.0153°N, 4.7348°W)
Time: 15:15:52
(UTC+00:00)

N. Korean satellite - Pass Details

Date: 31 October 2019
Orbit: 456 x 506 km, 97.2° (Epoch: 12 November)

Event Time Altitude Azimuth Distance (km) Brightness Sun altitude
Rises 06:19:33 0° 15° (NNE) 2,592 10.3 -9.3°
Reaches altitude 10° 06:21:38 10° 18° (NNE) 1,711 9.4 -9.0°
Maximum altitude 06:25:19 69° 102° (ESE) 544 7.0 -8.5°
Drops below altitude 10° 06:29:01 10° 187° (S) 1,715 9.4 -8.0°
Sets 06:31:06 0° 190° (S) 2,599 10.3 -7.7°
